Location: Kawakawa
(35.3830°S, 174.0670°E)
Time: 11:18:04
(UTC+13:00)

ISS - Visible Passes

Search period start: 22 October 2019 00:00
Search period end: 01 November 2019 00:00
Orbit: 411 x 421 km, 51.6° (Epoch: 21 October)

Date Brightness Start Highest point End Pass type
(mag) Time Alt. Az. Time Alt. Az. Time Alt. Az.
22 Oct -2.4 20:08:59 10° WNW 20:12:13 42° SW 20:15:28 10° SE visible
23 Oct -0.6 20:59:15 10° SW 21:00:50 13° SSW 21:02:24 10° S visible
24 Oct -0.9 20:09:35 10° WSW 20:12:00 18° SSW 20:14:26 10° SSE visible
29 Oct -0.4 22:37:49 10° S 22:38:00 11° S 22:38:00 11° S visible
31 Oct -0.8 22:36:18 10° SSW 22:37:13 16° SSW 22:37:13 16° SSW visible
